When you browse on this site, cookies collect data to enhance your experience and personalize the content and advertising you see.
Visit our Privacy Policy to learn more. By continuing to use the site, you agree to this use of cookies and data.
  • Em Portugal
  • Lista de países
  • Para 7 dias
  • Temperatura da água
  • Mapa do tempo
  • Widgets de tempo
  • user-avatar
    Iniciar Sessão

    Previsão horária em Veselyy

    Hoje, 20 Setembro, Sexta-feira

    Tempo Temperatura Precipitação Vento Pressão Humidade
    00:00 +4°C° 0 mm 3 m/s 739 mmHg 93%
    01:00 +3°C° 0 mm 3 m/s 739 mmHg 93%
    02:00 +3°C° 0 mm 3 m/s 739 mmHg 94%
    03:00 +3°C° 0 mm 3 m/s 739 mmHg 94%
    04:00 +3°C° 0 mm 3 m/s 739 mmHg 95%
    05:00 +3°C° 0 mm 4 m/s 739 mmHg 96%
    06:00 +4°C° 0.2 mm 4 m/s 739 mmHg 94%
    07:00 +4°C° 0.2 mm 4 m/s 739 mmHg 92%
    08:00 +5°C° 0 mm 4 m/s 739 mmHg 89%
    09:00 +5°C° 0.2 mm 5 m/s 740 mmHg 89%
    10:00 +4°C° 0.2 mm 6 m/s 740 mmHg 88%
    11:00 +4°C° 0.2 mm 6 m/s 740 mmHg 88%
    12:00 +4°C° 0.2 mm 6 m/s 740 mmHg 86%
    13:00 +5°C° 0.2 mm 5 m/s 740 mmHg 84%
    14:00 +5°C° 0.2 mm 5 m/s 740 mmHg 82%
    15:00 +5°C° 0 mm 4 m/s 741 mmHg 78%
    16:00 +6°C° 0 mm 4 m/s 741 mmHg 74%
    17:00 +8°C° 0 mm 3 m/s 741 mmHg 70%
    18:00 +5°C° 0 mm 3 m/s 741 mmHg 74%
    19:00 +4°C° 0 mm 3 m/s 742 mmHg 78%
    20:00 +2°C° 0 mm 3 m/s 742 mmHg 83%
    21:00 +2°C° 0 mm 3 m/s 742 mmHg 82%
    22:00 +3°C° 0 mm 2 m/s 742 mmHg 82%
    23:00 +2°C° 0 mm 2 m/s 742 mmHg 81%

    Amanhã, 21 Setembro, Sábado

    Tempo Temperatura Precipitação Vento Pressão Humidade
    00:00 +2°C° 0 mm 2 m/s 742 mmHg 82%
    01:00 +2°C° 0 mm 2 m/s 743 mmHg 83%
    02:00 +2°C° 0 mm 2 m/s 743 mmHg 84%
    03:00 +3°C° 0 mm 2 m/s 742 mmHg 84%
    04:00 +2°C° 0 mm 3 m/s 742 mmHg 84%
    05:00 +2°C° 0 mm 3 m/s 742 mmHg 84%
    06:00 +3°C° 0 mm 3 m/s 742 mmHg 81%
    07:00 +4°C° 0 mm 4 m/s 742 mmHg 77%
    08:00 +5°C° 0 mm 4 m/s 741 mmHg 74%
    09:00 +5°C° 0.3 mm 5 m/s 741 mmHg 78%
    10:00 +5°C° 0.3 mm 5 m/s 740 mmHg 82%
    11:00 +5°C° 0.3 mm 5 m/s 740 mmHg 87%
    12:00 +5°C° 0.5 mm 5 m/s 740 mmHg 89%
    13:00 +5°C° 0.5 mm 5 m/s 739 mmHg 92%
    14:00 +5°C° 0.5 mm 5 m/s 739 mmHg 94%
    15:00 +6°C° 0.2 mm 4 m/s 738 mmHg 95%
    16:00 +7°C° 0.2 mm 4 m/s 738 mmHg 95%
    17:00 +8°C° 0.2 mm 4 m/s 738 mmHg 96%
    18:00 +10°C° 0.1 mm 4 m/s 738 mmHg 95%
    19:00 +9°C° 0.1 mm 5 m/s 738 mmHg 94%
    20:00 +9°C° 0.1 mm 5 m/s 738 mmHg 93%
    21:00 +10°C° 0.2 mm 6 m/s 738 mmHg 93%
    22:00 +10°C° 0.2 mm 6 m/s 737 mmHg 92%
    23:00 +10°C° 0.2 mm 7 m/s 737 mmHg 91%

    Depois de amanhã, 22 Setembro, Domingo

    Tempo Temperatura Precipitação Vento Pressão Humidade
    00:00 +10°C° 0 mm 7 m/s 737 mmHg 92%
    01:00 +9°C° 0 mm 7 m/s 737 mmHg 92%
    02:00 +9°C° 0 mm 7 m/s 737 mmHg 92%
    03:00 +8°C° 0 mm 6 m/s 737 mmHg 93%
    04:00 +8°C° 0 mm 6 m/s 737 mmHg 93%
    05:00 +8°C° 0 mm 6 m/s 737 mmHg 94%
    06:00 +8°C° 0 mm 7 m/s 737 mmHg 92%
    07:00 +9°C° 0 mm 7 m/s 737 mmHg 90%
    08:00 +9°C° 0 mm 7 m/s 737 mmHg 88%
    09:00 +11°C° 0 mm 7 m/s 737 mmHg 83%
    10:00 +12°C° 0 mm 8 m/s 737 mmHg 79%
    11:00 +13°C° 0 mm 8 m/s 737 mmHg 74%
    12:00 +12°C° 0.1 mm 7 m/s 737 mmHg 76%
    13:00 +12°C° 0.1 mm 7 m/s 737 mmHg 78%
    14:00 +12°C° 0.1 mm 7 m/s 737 mmHg 80%
    15:00 +11°C° 0.1 mm 6 m/s 738 mmHg 79%
    16:00 +10°C° 0.1 mm 6 m/s 738 mmHg 79%
    17:00 +10°C° 0.1 mm 5 m/s 738 mmHg 78%
    18:00 +8°C° 0 mm 4 m/s 739 mmHg 77%
    19:00 +7°C° 0 mm 4 m/s 739 mmHg 76%
    20:00 +7°C° 0 mm 3 m/s 740 mmHg 74%
    21:00 +5°C° 0 mm 3 m/s 740 mmHg 76%
    22:00 +4°C° 0 mm 3 m/s 741 mmHg 77%
    23:00 +3°C° 0 mm 3 m/s 741 mmHg 78%

    23 Setembro, Segunda-feira

    Tempo Temperatura Precipitação Vento Pressão Humidade
    00:00 +3°C° 0 mm 2 m/s 742 mmHg 80%
    01:00 +3°C° 0 mm 2 m/s 742 mmHg 83%
    02:00 +2°C° 0 mm 2 m/s 742 mmHg 85%
    03:00 +2°C° 0 mm 2 m/s 742 mmHg 86%
    04:00 +1°C° 0 mm 2 m/s 743 mmHg 88%
    05:00 +2°C° 0 mm 1 m/s 743 mmHg 89%
    06:00 +3°C° 0 mm 1 m/s 743 mmHg 86%
    07:00 +3°C° 0 mm 2 m/s 743 mmHg 82%
    08:00 +3°C° 0 mm 2 m/s 743 mmHg 78%
    09:00 +5°C° 0 mm 2 m/s 743 mmHg 71%
    10:00 +6°C° 0 mm 2 m/s 744 mmHg 63%
    11:00 +7°C° 0 mm 2 m/s 744 mmHg 55%
    12:00 +8°C° 0 mm 2 m/s 744 mmHg 51%
    13:00 +9°C° 0 mm 2 m/s 743 mmHg 48%
    14:00 +10°C° 0 mm 1 m/s 743 mmHg 45%
    15:00 +10°C° 0 mm 1 m/s 743 mmHg 48%
    16:00 +10°C° 0 mm 1 m/s 742 mmHg 51%
    17:00 +9°C° 0 mm 1 m/s 742 mmHg 54%
    18:00 +8°C° 0 mm 1 m/s 742 mmHg 57%
    19:00 +7°C° 0 mm 1 m/s 742 mmHg 59%
    20:00 +6°C° 0 mm 1 m/s 742 mmHg 61%
    21:00 +4°C° 0 mm 2 m/s 742 mmHg 63%
    22:00 +4°C° 0 mm 2 m/s 742 mmHg 66%
    23:00 +3°C° 0 mm 2 m/s 742 mmHg 68%

    24 Setembro, Terça-feira

    Tempo Temperatura Precipitação Vento Pressão Humidade
    00:00 +3°C° 0 mm 2 m/s 742 mmHg 71%
    01:00 +2°C° 0 mm 2 m/s 742 mmHg 74%
    02:00 +2°C° 0 mm 2 m/s 742 mmHg 77%
    03:00 +1°C° 0 mm 2 m/s 742 mmHg 78%
    04:00 +1°C° 0 mm 2 m/s 742 mmHg 80%
    05:00 +1°C° 0 mm 2 m/s 742 mmHg 82%
    06:00 +2°C° 0 mm 2 m/s 742 mmHg 78%
    07:00 +2°C° 0 mm 3 m/s 742 mmHg 74%
    08:00 +3°C° 0 mm 3 m/s 742 mmHg 70%
    09:00 +4°C° 0 mm 3 m/s 742 mmHg 63%
    10:00 +7°C° 0 mm 3 m/s 742 mmHg 57%
    11:00 +8°C° 0 mm 3 m/s 742 mmHg 51%
    12:00 +9°C° 0 mm 3 m/s 742 mmHg 49%
    13:00 +9°C° 0 mm 3 m/s 742 mmHg 46%
    14:00 +10°C° 0 mm 2 m/s 741 mmHg 44%
    15:00 +9°C° 0 mm 2 m/s 741 mmHg 48%
    16:00 +9°C° 0 mm 2 m/s 741 mmHg 52%
    17:00 +8°C° 0 mm 2 m/s 741 mmHg 56%
    18:00 +7°C° 0 mm 2 m/s 741 mmHg 60%
    19:00 +5°C° 0 mm 2 m/s 741 mmHg 64%
    20:00 +4°C° 0 mm 2 m/s 741 mmHg 68%
    21:00 +3°C° 0 mm 2 m/s 741 mmHg 71%
    22:00 +3°C° 0 mm 2 m/s 741 mmHg 75%
    23:00 +2°C° 0 mm 2 m/s 741 mmHg 78%

    25 Setembro, Quarta-feira

    Tempo Temperatura Precipitação Vento Pressão Humidade
    00:00 +2°C° 0 mm 2 m/s 741 mmHg 79%
    01:00 +2°C° 0 mm 2 m/s 741 mmHg 80%
    02:00 +1°C° 0 mm 2 m/s 741 mmHg 81%
    03:00 +1°C° 0 mm 2 m/s 741 mmHg 81%
    04:00 +1°C° 0 mm 2 m/s 740 mmHg 82%
    05:00 +1°C° 0 mm 2 m/s 740 mmHg 82%
    06:00 +2°C° 0 mm 2 m/s 741 mmHg 78%
    07:00 +3°C° 0 mm 2 m/s 741 mmHg 74%
    08:00 +4°C° 0 mm 2 m/s 741 mmHg 70%
    09:00 +5°C° 0 mm 2 m/s 741 mmHg 65%
    10:00 +5°C° 0 mm 3 m/s 741 mmHg 59%
    11:00 +8°C° 0 mm 3 m/s 741 mmHg 54%
    12:00 +8°C° 0 mm 3 m/s 741 mmHg 51%
    13:00 +9°C° 0 mm 2 m/s 741 mmHg 49%
    14:00 +9°C° 0 mm 2 m/s 741 mmHg 46%
    15:00 +9°C° 0 mm 2 m/s 741 mmHg 50%
    16:00 +8°C° 0 mm 2 m/s 741 mmHg 54%
    17:00 +8°C° 0 mm 2 m/s 741 mmHg 58%
    18:00 +6°C° 0 mm 2 m/s 741 mmHg 62%
    19:00 +4°C° 0 mm 3 m/s 741 mmHg 66%
    20:00 +2°C° 0 mm 3 m/s 741 mmHg 71%
    21:00 +2°C° 0 mm 3 m/s 742 mmHg 72%
    22:00 +1°C° 0 mm 3 m/s 742 mmHg 73%
    23:00 +1°C° 0 mm 3 m/s 742 mmHg 73%
    Mostrar mais